FALCON 9 DEB (47412 NORAD) Tracking and Keplerian Element Data

This shows tracking and keplerian element data for the satellite.

Feedback or suggestion? Click here.




ElementValue
Catalog47412
NameFALCON 9 DEB
Epoch Orbit465
Epoch Day47.43650755
Epoch Year2021
RAAN71.2963
Inclination53.0367
Eccentricity0.0004251
Argument of Perigee290.1891
Mean Anonmoly69.8698
Mean Motion16.41338186
Decay Rate0.06697772
L11 47412U 21005BR 21047.43650755 .06697772 12422-4 41269-3 0 9999
L22 47412 53.0367 71.2963 0004251 290.1891 69.8698 16.41338186 4656

Live tracking and technical data element details for FALCON 9 DEB (NORAD 47412). FALCON 9 DEB can be tracked NOW for your location showing map with azimuth and elevation plus other details from your city location.

Track the satellite on the map from your city or location and see movement details for azimuth, elevation, latitude, longitude, range, height, and movement on the map or in text.







IsCatalogInMostPopularTable: catalog: 47412, numindb: 21
Update: records affected: 1



GetName: 47412 FALCON 9 DEB

Hit Count: updated at: Fri, 16 Apr 2021 12:03:47 GMT